This demonstration page uses our WeatherBlox Daily Observations layout. Learn more.

Left ArrowRight Arrow

31.84235, -102.49876

Hourly Observations for May 5, 2015

Temp ( °F °C ) Dew Point ( °F °C ) Humidity (%) Winds ( mph kmh ) Pressure ( in mb ) Visibility ( mi km ) Precip ( " mm )
12:05 am 00:05 Cloudy with Light Rain 67 19.4 63 17.2 87 87 SSE 10 17 29.80 1009 9 14 0.00 0.03
12:31 am 00:31 Cloudy with Nearby Thunderstorms 65 18.3 62 16.7 90 90 SSE 25 41 29.74 1007 4 6 0.06 1.52
12:43 am 00:43 Cloudy with Nearby Thunderstorms 66 18.9 62 16.7 87 87 SSE 35 56 29.74 1007 6 10 0.08 2.03
12:53 am 00:53 Mostly Cloudy with Light Rain 66 18.9 62 16.7 87 87 S 17 28 29.74 1007 7 11 0.08 2.03
1:03 am 01:03 Partly Cloudy 66 18.9 61 16.1 84 84 S 18 30 29.77 1008 10 16 0.00 0.03
1:19 am 01:19 Partly Cloudy with Nearby Thunderstorms 65 18.3 61 16.1 87 87 S 22 35 29.77 1008 10 16 0.00 0.03
1:34 am 01:34 Mostly Cloudy 65 18.3 61 16.1 87 87 SSE 15 24 29.77 1008 10 16 0.00 0.03
1:50 am 01:50 Cloudy 64 18 61 16 88 88 SSE 24 39 29.77 1008 10 16 0.00 0.03
1:53 am 01:53 Cloudy 65 18.3 60 15.6 84 84 SE 20 31 29.75 1008 10 16 0.00 0.03
2:53 am 02:53 Cloudy with Light Rain 65 18.3 60 15.6 84 84 SE 21 33 29.73 1007 10 16 0.00 0.03
3:53 am 03:53 Cloudy 65 18.3 60 15.6 84 84 SSE 17 28 29.73 1007 10 16 0.00 0.03
4:53 am 04:53 Cloudy with Light Rain 65 18.3 60 15.6 84 84 SSE 15 24 29.73 1007 8 13 0.00 0.03
5:53 am 05:53 Cloudy with Nearby Thunderstorms 64 17.8 60 15.6 87 87 S 16 26 29.72 1007 6 10 0.01 0.25
6:07 am 06:07 Cloudy with Light Rain 64 17.8 60 15.6 87 87 S 17 28 29.74 1007 6 10 0.02 0.51
6:37 am 06:37 Cloudy 64 17.8 61 16.1 90 90 S 18 30 29.74 1007 10 16 0.02 0.51
6:53 am 06:53 Cloudy 64 17.8 61 16.1 90 90 S 17 28 29.75 1007 9 14 0.02 0.51
7:53 am 07:53 Mostly Cloudy with Rain 64 17.8 61 16.1 90 90 S 17 28 29.76 1008 2 3 0.03 0.76
7:56 am 07:56 Cloudy with Light Rain 64 17.8 61 16.1 90 90 S 17 28 29.77 1008 3 5 0.00 0.03
8:26 am 08:26 Cloudy with Light Rain 65 18.3 61 16.1 87 87 S 20 31 29.77 1008 5 8 0.00 0.03
8:34 am 08:34 Cloudy with Light Rain 65 18.3 61 16.1 87 87 S 18 30 29.77 1008 4 6 0.00 0.03
8:43 am 08:43 Cloudy with Light Rain 65 18.3 61 16.1 87 87 S 20 31 29.77 1008 3 5 0.01 0.25
8:53 am 08:53 Mostly Cloudy with Light Rain 64 17.8 61 16.1 90 90 S 20 31 29.77 1008 5 8 0.01 0.25
9:09 am 09:09 Mostly Cloudy with Mist and Fog 66 18.9 62 16.7 87 87 S 17 28 29.77 1008 5 8 0.00 0.03
9:19 am 09:19 Mostly Cloudy with Mist and Fog 66 18.9 62 16.7 87 87 S 14 22 29.80 1009 5 8 0.00 0.03
9:47 am 09:47 Mostly Cloudy with Haze 68 20 63 17 83 83 S 18 30 29.80 1009 6 10 0.00 0.03
9:53 am 09:53 Cloudy 69 20.6 62 16.7 78 78 S 17 28 29.78 1009 7 11 0.00 0.03
10:53 am 10:53 Mostly Cloudy 71 21.7 62 16.7 73 73 SW 16 26 29.80 1009 8 13 0.00 0.00
11:02 am 11:02 Partly Cloudy 71 21.7 62 16.7 73 73 SW 14 22 29.77 1008 8 13 0.00 0.00
11:53 am 11:53 Partly Cloudy 74 23.3 59 15 60 60 WSW 13 20 29.79 1009 10 16 0.00 0.00
12:53 pm 12:53 Sunny 77 25 57 13.9 50 50 SW 16 26 29.78 1009 10 16 0.00 0.00
1:53 pm 13:53 Partly Cloudy 78 25.6 55 12.8 45 45 WSW 16 26 29.77 1008 10 16 0.00 0.00
2:53 pm 14:53 Sunny 80 26.7 50 10 35 35 SW 17 28 29.75 1007 10 16 0.00 0.00
3:53 pm 15:53 Sunny 82 27.8 36 2.2 19 19 SW 20 31 29.73 1007 10 16 0.00 0.00
4:53 pm 16:53 Sunny 82 27.8 39 3.9 22 22 SW 18 30 29.71 1006 10 16 0.00 0.00
5:53 pm 17:53 Sunny 82 27.8 37 2.8 20 20 SW 16 26 29.70 1006 10 16 0.00 0.00
6:53 pm 18:53 Sunny 82 27.8 34 1.1 18 18 WSW 15 24 29.70 1006 10 16 0.00 0.00
7:53 pm 19:53 Sunny 80 26.7 34 1.1 19 19 W 8 13 29.70 1006 10 16 0.00 0.00
8:53 pm 20:53 Clear 73 22.8 39 3.9 29 29 WNW 5 7 29.73 1007 10 16 0.00 0.00
9:53 pm 21:53 Clear 73 22.8 53 11.7 50 50 S 13 20 29.76 1008 10 16 0.00 0.00
10:53 pm 22:53 Clear 71 21.7 58 14.4 63 63 S 8 13 29.78 1009 10 16 0.00 0.00
11:53 pm 23:53 Clear 68 20 59 15 73 73 S 12 19 29.80 1009 10 16 0.00 0.00

Powered by AerisWeather